Wind_Speed
18 18 18 18 17 15 15 15 13 12 12 11 11 11 11 11 11 11 12 13 13 12 12 11 11 10 10 9 10 10 9 9 8 7 5 4 3 3 4 5 5 5 4 3 3 3 3 3 3 1 2 3 4 4 4 5 5 6 6 7 7 8
18 19 19 18 17 16 16 15 13 12 11 11 10 10 10 10 9 9 11 12 11 12 13 11 10 9 9 7 7 8 8 9 8 8 6 5 4 3 3 3 3 3 3 3 3 3 3 2 1 0 2 3 4 4 4 5 5 6 6 6 7 8
17 18 18 17 16 16 16 15 13 12 11 10 10 9 10 10 9 8 9 10 10 11 12 10 8 7 7 7 6 6 6 6 6 7 6 6 6 6 5 4 3 4 4 4 4 4 4 3 2 2 3 4 5 5 5 5 6 6 6 6 8 8
17 17 17 16 15 15 14 13 12 12 11 10 10 9 10 10 9 8 8 8 9 9 8 7 7 6 6 5 6 5 5 5 5 5 5 5 6 7 7 7 6 6 5 4 4 4 4 3 3 4 4 5 5 5 5 5 6 5 6 7 7 7
17 17 16 15 15 14 13 12 11 11 10 9 11 11 10 9 8 8 8 7 7 7 7 6 6 6 5 5 5 4 4 4 4 4 4 4 5 6 8 8 7 6 5 4 4 4 4 3 3 4 5 5 5 5 5 5 5 5 6 6 6 5
16 16 15 14 15 14 13 13 11 10 9 9 12 12 10 8 7 7 7 6 6 6 7 7 6 6 5 5 5 4 4 4 4 4 4 4 4 5 6 7 6 6 5 4 4 4 3 3 3 4 4 5 5 5 5 5 5 5 5 5 5 5
15 16 16 15 14 13 13 12 11 10 9 9 12 12 9 7 5 6 6 6 5 5 6 6 5 5 5 5 4 4 4 4 3 3 4 4 4 4 5 6 5 5 4 4 4 4 3 3 3 4 4 4 4 4 5 5 5 5 4 5 5 6
15 15 15 15 14 12 12 11 10 9 9 10 10 9 8 6 5 5 5 5 5 5 5 5 4 4 4 4 4 4 4 4 4 3 3 4 4 4 4 5 5 5 4 4 4 4 4 3 3 3 4 4 4 4 5 5 5 4 4 5 7 7
15 15 15 15 13 12 12 11 10 9 9 9 8 7 7 6 5 4 4 4 4 4 5 4 4 3 4 4 3 4 3 4 3 3 3 3 4 4 4 4 4 4 4 4 4 4 4 4 3 4 5 5 5 5 5 5 5 6 6 6 9 9
15 15 15 14 13 12 11 11 10 9 9 8 7 7 7 5 4 4 3 3 3 4 4 3 3 2 2 3 3 3 3 3 3 3 3 2 3 4 4 4 4 4 4 4 4 4 4 4 5 5 6 6 6 6 6 6 7 9 9 9 11 12
16 16 15 13 13 12 10 11 11 9 8 8 8 7 6 4 3 3 3 3 3 3 3 2 2 2 2 2 3 3 3 3 3 3 3 2 3 3 3 4 4 4 4 4 4 4 4 5 6 7 7 7 8 8 9 9 10 11 12 12 13 13
17 16 16 14 13 12 11 13 13 10 9 9 8 7 6 4 3 3 3 2 2 2 2 2 2 2 2 2 3 3 3 4 3 3 3 3 3 3 3 3 3 4 4 4 4 4 5 6 8 9 9 10 10 11 12 12 13 14 15 15 15 15
18 17 16 14 13 13 13 13 12 10 9 8 7 7 7 5 3 3 2 1 2 2 2 2 2 3 3 3 3 3 3 4 4 3 3 3 3 3 3 3 3 3 3 4 5 6 7 8 10 10 11 12 13 14 15 15 16 16 17 17 17 17
19 19 16 14 13 13 13 12 12 10 9 8 8 7 7 6 4 3 2 1 1 2 3 3 3 4 4 4 4 4 4 4 4 3 3 3 3 3 3 3 4 4 4 4 6 6 8 9 10 12 14 15 16 17 17 17 18 18 18 18 17 17
19 19 16 14 13 14 14 12 12 11 10 9 9 8 7 6 5 4 2 2 2 3 4 4 4 5 5 5 5 5 5 4 4 3 2 3 3 3 4 4 4 4 4 5 6 6 7 10 11 14 16 17 18 18 17 18 18 18 18 17 17 16
18 17 16 14 14 15 14 12 12 11 10 10 9 8 7 6 6 5 4 4 4 4 5 5 5 5 5 5 5 5 4 4 3 2 2 3 3 4 5 5 5 5 5 6 6 5 7 10 13 16 17 18 18 18 18 18 18 18 17 17 16 16
17 16 16 16 16 15 13 12 12 11 10 9 8 8 8 8 7 7 6 6 5 5 5 5 5 5 5 5 5 4 4 3 2 2 3 3 4 5 6 6 6 6 6 6 5 5 8 12 16 18 19 19 20 19 19 19 18 18 17 17 16 16
18 18 15 13 14 13 12 12 11 10 9 9 9 9 9 9 9 9 8 7 6 6 6 5 4 4 4 4 4 4 4 3 2 2 3 4 6 6 6 6 6 7 7 6 4 6 10 14 17 19 21 21 21 21 21 20 19 18 17 17 17 17
19 17 14 14 14 13 13 12 11 10 11 11 11 11 10 10 10 10 8 8 7 7 7 5 4 4 3 3 3 3 2 2 2 3 4 5 6 6 6 6 5 6 7 6 5 8 13 16 18 21 23 24 24 24 23 21 21 20 18 18 17 16
18 14 14 16 16 15 14 13 14 14 14 14 13 12 12 11 11 11 10 9 8 8 7 6 6 4 2 1 2 1 2 3 4 5 5 4 5 5 5 4 5 6 7 7 7 11 15 16 18 20 21 22 24 25 26 24 23 21 20 18 17 15
18 14 14 15 13 15 16 15 16 16 17 17 15 14 14 13 12 12 11 10 10 8 6 7 6 3 1 1 1 2 4 5 5 5 4 4 4 4 3 4 5 6 7 9 10 11 15 15 14 14 14 14 16 19 23 25 25 24 21 19 17 16
21 19 18 17 16 16 16 17 18 18 19 19 17 16 16 15 14 13 13 12 11 9 8 7 6 4 3 2 3 4 4 4 4 3 4 4 4 3 3 4 6 8 9 12 13 9 14 12 7 8 9 8 8 9 14 20 24 24 22 19 18 17
23 22 21 21 20 16 15 16 18 20 20 20 19 18 17 16 15 14 14 13 11 10 9 7 6 4 3 3 2 2 2 2 2 3 4 3 3 3 4 4 5 8 11 13 16 12 9 9 4 5 7 5 4 4 6 10 15 18 19 19 19 18
23 23 23 21 18 15 14 15 18 21 21 20 20 19 17 17 16 15 15 13 11 10 8 6 5 4 3 2 1 1 0 1 2 3 4 4 5 5 5 5 5 7 9 11 14 17 13 8 5 4 3 2 2 2 2 5 7 10 13 16 17 17
22 24 22 17 16 17 19 19 20 21 22 22 21 21 19 18 17 15 14 13 11 9 6 5 4 3 3 2 2 1 1 2 3 4 5 7 8 7 7 6 6 8 10 11 12 15 19 18 13 7 4 3 1 1 2 3 5 6 8 12 14 14
23 20 16 16 19 22 23 24 25 25 23 22 20 20 20 18 17 15 14 12 10 7 5 4 4 4 4 3 3 3 3 4 6 7 8 9 9 9 9 9 9 10 11 13 13 12 17 21 22 21 17 13 8 5 3 1 2 3 5 8 11 12
19 17 17 20 24 25 24 25 27 26 22 20 19 19 20 19 16 14 13 11 9 8 6 5 6 6 5 5 5 5 6 7 8 10 10 11 12 12 11 11 11 11 12 14 13 11 11 14 18 22 24 23 20 15 9 4 2 1 3 4 8 11
16 18 21 24 24 23 22 23 25 23 20 20 21 20 20 18 15 13 12 11 10 9 8 7 8 8 7 7 6 7 8 9 10 12 12 13 14 14 14 14 14 15 15 17 17 15 13 12 12 15 18 21 22 20 18 13 8 4 1 2 4 7
15 17 20 22 23 21 21 23 24 23 22 22 22 22 20 17 15 14 12 11 10 10 10 10 9 9 8 8 8 9 9 10 12 13 14 14 15 15 16 16 17 18 20 21 22 23 22 19 15 13 12 12 13 14 14 13 10 7 5 3 3 5
15 16 18 21 24 21 22 24 24 24 24 23 23 23 21 19 17 15 13 13 12 12 12 12 11 10 9 9 9 10 10 11 13 14 15 15 16 17 17 18 19 19 21 23 24 25 26 25 22 20 16 12 10 9 8 9 9 8 7 6 5 5
14 17 19 21 23 19 20 23 23 23 24 24 25 25 23 21 18 16 14 14 13 13 13 13 12 11 11 10 11 11 11 13 14 15 15 16 17 18 18 19 20 20 22 24 25 25 26 26 25 25 22 18 14 12 10 9 9 9 9 7 6 5
15 17 18 19 21 17 17 23 24 24 25 26 26 25 24 22 19 16 15 15 15 15 15 14 13 13 13 12 12 12 13 14 15 15 16 17 18 18 18 19 20 21 23 24 25 25 26 25 25 24 23 20 17 15 14 12 10 10 10 8 6 5
15 16 16 17 19 18 19 24 25 25 26 25 25 24 22 20 19 17 16 15 15 16 17 16 15 15 15 13 13 14 15 15 16 16 17 17 17 17 18 20 21 22 23 24 24 25 26 25 25 24 22 21 19 17 16 14 12 11 10 8 7 6
14 15 17 17 18 20 23 24 23 24 24 23 23 21 19 18 17 16 14 14 15 17 18 18 17 17 16 15 14 15 15 16 17 17 17 17 17 18 19 21 22 23 24 24 24 25 25 25 25 25 23 21 20 18 16 15 14 13 11 10 10 9
15 15 16 16 17 21 24 24 23 23 23 22 21 20 18 17 16 14 13 14 16 17 18 19 18 17 16 15 15 16 16 16 17 17 17 17 18 19 20 22 23 23 24 23 23 24 24 24 24 25 24 23 21 19 17 15 14 13 12 11 11 11
15 15 15 16 18 21 24 24 23 24 22 21 21 20 18 17 15 13 13 15 17 17 18 19 18 17 17 16 16 17 17 17 17 17 17 17 18 19 21 23 23 23 23 22 22 23 23 23 24 24 24 23 21 19 17 15 13 13 12 12 12 12
15 15 15 18 22 22 23 24 23 23 22 21 21 20 19 18 15 13 14 15 17 18 18 18 18 18 18 17 17 18 18 18 18 17 17 17 18 20 21 23 22 23 22 22 22 22 22 22 22 22 23 22 20 17 16 14 13 13 12 12 12 12
Wind_Direction
167 168 169 168 166 167 168 163 159 153 150 147 141 139 138 135 131 126 121 115 113 113 111 107 100 93 90 86 85 85 82 82 83 83 85 94 111 121 117 116 117 118 125 139 157 173 188 198 202 227 302 327 346 355 358 4 2 6 6 358 3 359
169 170 170 168 166 168 167 163 159 155 154 149 143 144 140 135 130 124 122 119 115 113 112 108 99 91 89 86 82 78 77 77 76 75 73 75 86 103 116 122 119 108 99 102 110 119 129 142 159 285 327 330 334 332 337 346 348 355 358 354 357 350
170 170 171 168 167 169 166 162 160 159 157 151 146 145 138 134 130 125 125 123 120 117 113 108 100 96 93 87 79 70 72 75 75 73 68 70 77 86 94 103 107 101 93 88 89 93 94 91 69 26 0 349 344 340 340 343 345 350 352 357 2 357
169 170 172 169 167 169 167 163 164 164 159 153 149 145 140 137 132 126 127 126 123 119 113 106 100 100 96 87 75 66 65 67 75 75 71 72 74 79 83 87 93 93 90 82 79 82 80 71 55 34 20 12 9 2 357 357 359 5 7 15 17 8
169 172 174 171 169 170 169 167 168 167 160 154 151 148 146 142 134 127 125 126 122 114 109 98 93 96 93 87 75 68 65 59 71 80 86 85 76 79 81 83 86 87 85 74 68 70 67 55 36 25 14 10 9 5 5 5 7 16 23 29 22 3
170 175 177 175 173 172 171 171 172 169 161 156 153 151 150 145 135 126 126 125 116 107 100 88 83 84 84 84 73 68 74 68 69 82 100 99 88 85 85 87 87 87 80 67 59 51 46 36 29 22 16 10 6 2 5 7 6 13 25 27 5 337
172 176 179 177 175 174 174 175 174 169 166 161 156 154 151 146 136 128 129 121 110 100 90 83 76 72 69 68 66 65 69 73 69 76 99 104 97 90 87 88 84 82 77 69 63 56 51 35 31 33 31 26 17 9 6 10 6 7 21 26 8 343
175 177 179 178 176 174 176 177 175 171 171 166 161 160 154 149 141 133 130 115 105 96 90 87 74 65 54 50 60 61 61 76 79 79 91 97 94 84 78 79 79 83 83 79 75 70 67 51 39 43 44 35 21 13 8 14 12 18 36 44 41 22
179 180 180 180 177 176 177 176 175 174 173 170 168 167 160 154 150 139 129 111 102 95 94 87 72 66 50 48 60 60 71 88 90 87 82 78 81 75 71 75 81 87 86 84 81 76 72 63 52 47 46 36 24 22 24 33 45 55 60 68 67 57
183 182 182 180 178 178 178 176 177 177 174 173 175 175 167 162 160 150 131 111 103 96 94 84 71 77 57 55 72 81 97 93 82 82 74 68 75 72 70 73 76 78 78 78 78 78 73 66 55 44 42 38 38 46 56 69 78 81 82 88 84 74
186 184 182 180 179 179 177 177 180 180 175 176 178 179 176 173 168 151 130 112 109 99 97 98 92 100 82 80 103 108 96 80 73 78 80 79 79 75 68 64 63 64 65 69 72 74 72 66 57 50 50 54 63 71 77 83 87 91 91 93 93 85
187 185 184 182 180 178 177 179 183 183 180 181 180 180 182 187 181 154 135 112 111 106 109 131 130 111 98 97 112 112 94 85 84 85 79 72 70 66 61 55 54 53 54 61 64 64 63 63 64 65 68 74 80 85 87 89 91 93 93 92 93 90
189 188 186 185 181 177 177 181 184 184 184 186 188 191 196 202 202 173 149 119 109 124 147 163 147 117 103 102 110 115 110 103 96 88 76 65 59 58 65 65 61 57 54 57 59 59 60 63 68 75 82 86 90 92 92 92 91 91 91 90 88 86
192 192 190 187 180 176 178 180 185 189 192 195 199 203 206 210 209 189 176 167 133 157 170 165 146 123 107 105 111 117 118 113 99 84 70 56 46 52 62 62 59 54 44 46 51 53 61 69 78 86 90 93 95 95 93 91 89 86 85 84 84 82
191 192 191 187 181 180 181 182 190 195 196 202 209 211 213 211 199 188 195 188 162 164 163 149 140 127 112 112 122 127 121 110 93 70 49 40 34 38 40 36 41 41 31 34 42 49 67 81 91 97 97 96 95 92 90 87 85 83 81 80 78 77
189 189 188 187 184 185 186 186 192 197 203 208 209 206 200 190 182 187 191 173 161 156 149 140 135 122 111 121 136 138 120 100 84 56 28 28 24 22 24 19 19 23 26 32 42 59 82 95 101 103 99 96 92 89 85 83 81 80 78 77 76 74
185 186 187 186 185 187 187 188 192 198 204 200 190 181 172 170 174 183 180 163 151 145 141 132 126 120 118 129 137 134 120 104 87 44 13 9 9 12 14 10 9 10 17 26 45 82 100 105 106 103 98 93 88 84 81 79 79 79 77 77 76 74
185 187 182 175 176 180 181 185 192 195 188 173 166 163 161 167 172 173 168 154 144 141 134 117 116 129 129 128 124 122 116 99 65 20 3 0 0 5 5 4 8 10 15 25 51 105 116 113 109 103 95 90 85 81 78 77 77 77 76 76 74 72
187 182 170 169 172 175 177 179 177 171 164 161 158 155 155 161 163 163 156 144 141 144 137 128 137 143 131 122 115 104 84 40 16 1 354 355 355 358 2 8 22 28 31 34 61 120 127 119 112 104 95 89 82 78 75 74 75 74 74 75 72 69
178 168 164 172 170 166 167 166 163 159 156 156 154 153 155 156 155 156 150 144 144 143 142 147 148 138 123 126 110 57 353 333 330 331 335 343 349 354 7 26 45 56 59 56 80 125 133 123 113 104 96 90 83 76 73 71 71 71 70 71 69 66
165 167 167 169 167 167 166 161 158 157 155 152 154 157 155 153 154 154 150 150 149 144 150 158 153 150 191 220 291 304 298 304 307 315 333 350 356 359 29 57 71 80 84 75 80 123 141 132 123 115 105 98 90 78 71 67 65 66 66 65 66 65
169 178 177 179 182 180 175 171 167 162 158 153 155 159 156 153 154 154 154 155 154 151 159 163 166 178 200 235 266 279 282 295 308 334 359 7 17 34 67 78 88 87 85 78 70 105 150 155 153 147 141 132 119 96 76 67 61 60 62 62 64 64
176 181 184 188 189 183 176 176 172 166 161 157 156 157 155 153 154 156 154 152 152 151 157 164 174 191 206 228 246 266 281 316 345 11 20 32 57 79 98 104 108 94 85 79 67 73 132 172 182 157 163 162 152 147 107 76 63 58 58 59 60 61
178 185 189 189 183 172 163 167 168 166 163 158 155 153 152 150 150 153 148 146 149 150 160 173 181 193 204 209 214 241 292 21 24 43 62 86 95 101 117 125 124 106 94 87 74 67 77 107 138 158 181 164 156 168 122 92 78 62 53 55 55 55
181 189 189 176 165 164 164 165 160 154 152 151 149 148 149 147 146 149 147 147 150 152 164 176 174 177 174 171 159 127 93 80 82 92 97 102 105 107 117 126 120 111 105 100 93 79 73 77 89 99 95 93 138 112 77 108 110 80 57 54 53 53
181 183 175 163 170 176 173 168 158 150 148 147 145 145 149 150 150 152 151 151 149 148 153 155 152 152 147 140 129 113 104 111 110 105 103 100 104 110 113 116 112 109 110 108 105 94 81 78 79 81 82 81 83 85 85 161 148 111 88 67 54 52
174 168 165 172 182 182 175 169 163 158 155 153 149 147 151 155 158 158 154 149 143 137 135 138 140 136 132 125 116 115 114 117 112 104 102 101 103 109 109 109 110 111 113 112 109 102 91 84 79 78 80 83 84 86 87 82 76 109 141 102 57 51
168 166 172 180 183 182 175 165 159 156 158 163 160 151 152 157 161 161 153 143 135 130 130 133 134 130 125 119 115 118 118 117 113 106 104 104 105 107 107 107 107 107 106 104 103 101 95 89 87 84 82 82 80 80 79 76 71 55 82 118 66 50
168 165 172 178 183 182 172 162 160 164 165 166 161 153 154 159 159 157 149 138 131 130 132 132 130 126 121 119 119 120 120 117 113 109 107 107 108 108 108 108 105 102 99 97 96 96 93 89 90 91 86 82 79 77 75 70 66 59 53 56 59 34
163 162 166 177 187 180 167 164 167 170 168 164 161 156 157 158 155 152 144 137 135 134 136 135 129 126 124 124 124 122 121 118 113 112 112 112 112 110 107 104 101 99 97 95 93 91 90 87 85 83 80 77 74 73 72 63 54 52 51 47 48 32
160 165 167 180 188 175 165 170 172 174 174 171 167 160 156 154 152 151 146 140 139 139 139 137 132 131 130 129 130 127 123 119 116 116 117 116 114 109 106 102 99 98 95 93 91 88 86 84 81 78 76 73 70 68 67 61 49 44 46 42 35 28
164 171 169 178 183 173 170 175 176 180 180 174 169 165 160 155 153 154 150 144 143 142 141 139 136 136 136 136 134 129 124 122 120 120 119 116 114 110 107 104 101 99 96 92 90 86 84 82 79 77 74 73 72 69 66 63 56 50 49 43 31 21
169 177 172 171 173 174 178 178 178 181 181 175 171 168 164 159 158 158 153 149 147 147 145 143 143 141 140 141 137 131 129 126 123 122 120 116 113 111 109 106 104 101 96 92 88 85 83 81 79 78 76 74 72 69 66 63 59 54 49 43 32 18
171 179 175 168 166 172 181 183 184 185 183 177 172 168 166 162 160 158 154 152 152 152 149 148 148 145 144 145 139 134 132 128 126 124 120 117 113 112 111 108 106 102 96 92 88 85 83 81 79 78 77 75 73 71 67 63 60 55 49 44 34 18
167 176 176 170 166 174 183 185 187 186 182 178 173 169 166 163 160 157 155 155 155 154 152 151 150 148 148 147 140 136 134 131 129 127 121 117 115 114 113 110 106 102 97 93 89 86 83 81 79 77 76 76 73 71 67 63 61 58 53 49 42 29
164 175 173 170 173 179 185 185 184 184 181 179 174 168 165 161 158 156 155 156 155 154 153 152 151 150 151 150 143 139 137 135 132 129 123 118 116 117 114 110 107 102 98 93 89 86 83 81 78 76 75 75 72 71 68 65 63 60 56 52 46 40
171 185 171 173 184 186 186 186 184 184 183 181 177 172 166 161 156 156 157 157 155 154 155 153 153 154 154 151 146 142 140 139 136 131 125 120 118 118 115 111 109 104 99 95 90 87 84 81 79 77 75 75 73 72 69 67 64 60 56 52 47 43
Height
826 827 829 830 832 833 835 837 838 839 840 841 842 843 843 843 844 844 843 842 842 843 843 843 844 845 845 845 845 846 846 845 845 846 846 845 845 845 845 846 847 848 848 848 849 849 849 849 849 849 849 849 849 850 849 849 849 849 849 849 848 848
826 827 829 830 831 833 835 836 838 839 840 841 842 843 844 844 844 845 844 844 843 843 843 843 844 845 845 846 846 846 846 846 846 846 846 846 846 845 845 846 846 847 848 849 849 849 849 849 849 849 849 849 849 849 849 849 849 849 849 849 848 848
827 828 830 831 832 833 835 837 838 840 840 842 843 844 844 844 845 845 845 845 845 844 844 844 844 845 845 846 847 847 847 847 847 846 847 847 846 846 845 846 846 847 848 849 849 849 849 849 849 849 849 849 849 849 848 848 848 849 848 848 848 847
827 829 831 832 833 834 836 838 839 840 841 842 843 844 844 845 845 845 846 846 846 845 845 845 845 845 845 846 846 847 847 847 847 847 847 847 847 846 846 846 846 847 848 849 849 849 849 849 849 849 849 848 848 848 848 848 848 848 848 848 847 846
827 829 831 832 833 834 836 838 839 840 841 842 842 843 844 845 845 845 846 846 846 846 845 845 845 845 845 846 846 846 847 847 848 847 847 847 848 847 846 846 847 847 848 849 849 849 849 849 849 848 848 848 848 848 848 848 847 848 848 847 846 845
827 829 831 832 833 835 836 838 839 840 841 842 842 843 844 845 845 845 846 846 847 846 846 846 846 846 846 846 846 846 846 847 848 848 847 847 848 848 847 847 847 848 848 849 849 849 849 849 849 848 848 848 848 848 847 847 847 847 847 847 846 844
826 828 830 832 833 835 836 838 839 840 841 842 842 843 844 845 845 845 846 846 847 846 846 846 846 846 846 846 846 846 846 847 848 848 848 848 848 848 847 847 847 848 848 849 849 849 849 849 849 848 848 848 847 847 847 847 847 847 847 846 845 844
826 828 830 831 833 834 836 838 839 840 842 842 843 843 843 844 845 845 846 846 847 846 846 846 846 846 846 846 846 846 847 847 847 848 848 848 848 847 848 847 848 848 848 849 849 849 849 849 849 848 848 848 847 847 847 847 847 847 847 846 845 844
826 828 830 831 833 834 836 837 839 840 842 843 843 843 843 844 845 845 846 846 847 847 846 846 846 846 846 846 846 846 847 847 847 848 849 849 848 848 848 848 848 848 848 849 849 849 849 849 849 848 848 847 847 846 846 846 846 846 846 846 845 844
826 828 829 831 832 834 836 837 839 840 841 843 843 844 844 844 845 845 845 846 846 846 846 846 846 846 846 846 846 846 847 847 847 848 848 849 849 848 848 848 848 848 849 849 849 849 849 849 849 848 848 847 846 846 846 845 846 846 846 846 845 845
826 828 829 831 832 834 835 837 838 840 841 842 843 844 844 845 845 845 845 845 846 846 846 846 846 846 846 846 847 847 847 847 847 848 848 849 849 849 849 849 849 849 849 849 849 848 849 849 848 848 847 847 846 846 845 845 845 845 845 845 845 845
825 827 829 831 832 833 835 836 838 839 841 842 843 843 844 845 845 845 845 845 845 845 846 846 846 847 847 847 847 847 848 847 848 848 848 849 849 849 849 849 849 849 849 849 849 849 849 849 848 848 848 847 846 846 846 846 846 846 845 845 845 845
824 827 828 830 832 833 834 836 838 839 841 842 842 843 844 845 845 846 846 845 845 845 846 846 846 847 847 847 848 848 848 848 848 849 849 850 850 849 849 849 850 850 850 850 850 849 849 849 849 848 848 847 847 846 847 847 846 846 846 846 846 845
824 826 828 830 831 832 833 835 837 839 840 841 842 843 844 844 845 846 846 846 845 845 846 846 847 847 847 848 848 849 849 849 849 849 850 850 850 850 850 850 850 850 850 850 850 850 850 849 849 849 848 848 847 847 847 847 847 847 847 847 846 846
823 825 827 829 830 831 832 834 836 838 839 840 841 842 843 844 844 845 846 846 846 846 846 846 847 847 848 848 849 849 849 849 849 850 850 850 850 850 850 850 850 850 850 850 850 849 850 850 850 849 849 849 848 848 848 848 848 848 848 847 847 846
822 824 827 828 829 830 832 834 835 837 838 839 840 841 842 843 844 845 845 846 846 846 846 847 847 848 848 849 849 849 849 850 850 850 850 850 850 850 850 849 849 850 850 850 850 849 850 850 850 850 850 850 849 849 849 849 849 848 848 848 848 847
821 823 825 827 828 830 831 833 835 837 838 839 839 840 841 842 843 844 845 846 846 846 846 847 847 848 849 849 850 850 850 850 850 850 850 850 850 849 849 849 849 849 849 850 850 850 850 850 851 851 851 851 850 850 850 850 850 850 849 849 849 849
820 821 824 826 828 830 831 833 835 836 837 838 839 840 841 842 842 844 845 845 846 846 846 847 848 849 849 850 850 850 850 851 850 850 850 849 849 849 849 849 849 849 849 849 849 849 850 851 852 852 852 852 852 852 851 851 851 850 850 850 850 850
819 821 823 826 827 829 831 833 834 835 837 837 838 839 840 841 842 843 844 845 845 846 846 847 848 849 850 850 850 850 850 851 851 850 850 849 849 848 848 849 849 849 849 849 849 849 850 852 853 853 853 853 853 853 853 853 852 852 851 851 851 851
820 823 825 826 826 828 830 832 834 835 836 837 838 839 840 841 842 843 844 845 845 846 846 847 848 849 850 850 850 850 851 851 851 850 849 849 848 848 848 848 849 849 849 849 849 849 851 852 853 854 854 855 855 855 854 854 853 853 852 852 852 852
822 825 827 827 828 828 829 831 833 834 835 836 838 839 840 841 842 842 843 844 844 845 846 847 848 849 850 850 850 850 851 850 850 850 849 848 848 848 848 848 849 849 850 849 849 850 851 852 853 854 855 856 856 856 856 855 854 854 854 853 853 853
821 823 824 824 826 828 829 830 831 833 835 836 838 839 839 841 841 842 842 843 844 845 846 847 848 849 850 850 850 850 850 850 850 849 848 848 848 847 848 848 849 850 850 850 850 850 851 852 852 852 854 855 856 857 857 856 855 855 855 855 854 854
819 820 821 820 822 826 828 830 831 832 834 836 837 839 840 841 841 842 842 843 844 844 846 847 848 849 849 849 849 850 850 850 849 848 848 848 847 847 848 849 850 851 851 851 851 851 851 851 851 851 852 852 852 854 855 857 857 857 857 856 855 855
819 819 819 819 822 825 828 830 831 833 834 836 837 839 840 841 842 842 842 843 844 845 846 847 848 848 849 849 849 849 849 849 849 848 848 848 847 848 849 850 851 851 852 852 852 851 851 850 850 851 850 850 850 849 851 856 858 859 859 857 857 856
818 817 818 820 823 825 828 830 831 833 835 836 837 838 839 841 842 842 843 843 844 845 846 847 848 848 848 849 849 849 849 849 849 848 848 848 848 849 849 851 851 852 852 852 853 853 852 851 850 850 849 849 849 848 851 855 856 859 860 859 858 858
816 817 820 822 822 824 826 828 830 832 834 836 837 838 838 840 842 843 843 843 844 845 846 847 847 848 848 849 849 850 849 849 849 848 848 848 849 850 851 852 852 853 853 853 853 853 853 853 851 850 850 850 850 850 853 854 854 857 860 860 860 859
816 818 820 820 821 823 826 828 829 832 834 836 838 838 839 840 842 843 843 843 844 845 846 847 847 848 849 849 850 850 850 850 849 849 849 849 850 851 852 853 853 853 853 853 853 853 853 854 853 853 853 853 853 853 854 855 855 855 857 858 860 859
816 818 819 820 821 824 826 828 830 832 835 837 838 838 839 840 842 843 843 843 844 845 846 847 848 848 849 850 850 851 851 850 850 850 850 851 851 852 853 854 854 854 854 853 853 853 853 854 854 855 856 855 855 856 856 857 857 857 856 856 858 859
814 817 818 819 821 823 825 827 829 831 834 837 837 838 839 840 842 844 844 844 844 845 846 847 848 849 849 850 851 851 851 851 851 851 851 852 853 854 855 855 855 855 854 854 854 853 853 854 855 856 857 857 857 858 859 859 860 859 858 856 857 858
813 815 817 818 819 821 823 825 827 830 833 836 837 837 839 841 843 844 845 845 845 846 847 847 848 849 850 850 852 852 852 852 852 853 853 854 855 855 856 856 856 856 855 855 855 854 854 855 856 857 857 858 858 859 860 861 861 860 859 858 857 858
811 813 814 815 817 820 822 824 826 829 833 835 836 837 838 840 842 844 845 845 845 846 847 848 848 849 850 851 852 853 853 854 854 854 855 855 856 857 857 857 857 857 857 856 856 856 856 857 857 858 858 859 860 861 861 861 862 861 860 860 859 858
809 810 812 814 816 819 821 822 825 829 833 834 835 836 837 839 841 843 844 844 845 846 846 848 849 850 851 852 853 854 854 855 855 856 856 857 857 858 858 858 858 858 858 858 858 858 858 858 859 859 859 860 861 861 862 862 863 862 862 862 861 860
806 809 811 813 816 819 821 823 826 829 832 833 834 835 836 838 840 842 843 843 844 845 846 847 849 850 852 853 854 855 855 856 857 857 858 858 858 859 859 859 859 859 859 859 860 860 860 860 860 860 861 862 862 862 863 863 864 863 863 864 863 862
805 808 811 813 816 819 822 825 827 828 830 831 832 835 837 838 840 841 842 843 844 845 846 847 849 850 852 853 855 855 856 857 858 858 859 859 859 860 860 860 860 860 860 861 861 861 861 862 862 862 862 863 863 864 864 865 865 865 865 865 864 863
806 808 811 814 817 819 822 824 826 827 829 830 832 834 836 838 839 840 841 842 844 844 846 847 849 851 852 854 855 856 857 858 859 860 860 860 861 861 861 861 861 862 862 863 863 863 863 863 863 863 863 864 865 865 866 866 866 866 866 866 865 864
806 808 811 815 817 819 822 823 824 826 828 830 832 834 836 837 839 840 841 842 843 844 846 847 849 851 853 854 856 857 858 859 860 861 861 861 862 861 862 862 862 863 863 864 865 864 865 865 865 865 865 865 866 867 867 868 868 868 868 867 866 866
805 807 811 814 816 818 821 822 824 826 828 829 831 833 835 836 838 839 841 842 844 845 846 848 849 851 853 854 856 857 859 860 861 862 862 862 862 862 862 863 864 864 865 866 866 866 866 866 866 867 867 867 868 869 869 870 870 869 869 868 868 867